Location: ????????
(55.4717°N, 39.1821°E)
Time: 15:51:09
(UTC+00:00)

Gbstr 26 Del rocket - Pass Details

Date: 14 April 2024
Orbit: 491 x 1240 km, 51.8° (Epoch: 23 May)

Event Time Altitude Azimuth Distance (km) Brightness Sun altitude
Exits shadow 00:32:43 22° 205° (SSW) 1,257 4.1 -14.1°
Maximum altitude 00:34:36 32° 159° (SSE) 931 3.8 -13.9°
Drops below altitude 10° 00:38:02 10° 95° (E) 1,719 6.0 -13.5°
Sets 00:40:15 0° 85° (E) 2,577 7.2 -13.2°
